| time (UTC) | temp F | wind direction | speed MPH | gust MPH | rain 1hr in | rain 24hr in | rain mn in | humidity % | barometer mb |
| 20260903152223 | 56 | 322 | 0.0 | 0.0 | 0.00 | 0.00 | 0.00 | 72 | 1017.9 |
| 20260903151713 | 55 | 322 | 0.0 | 0.0 | 0.00 | 0.00 | 0.00 | 72 | 1017.8 |
| 20260903151207 | 55 | 322 | 0.0 | 0.0 | 0.00 | 0.00 | 0.00 | 71 | 1017.9 |
| 20260903150444 | 56 | 322 | 0.0 | 0.0 | 0.00 | 0.00 | 0.00 | 71 | 1018.0 |
| 20260903150146 | 56 | 322 | 0.0 | 0.0 | 0.00 | 0.00 | 0.00 | 70 | 1017.9 |
| 20260903145411 | 56 | 322 | 0.0 | 0.0 | 0.00 | 0.00 | 0.00 | 70 | 1017.9 |
| 20260903144906 | 56 | 322 | 0.0 | 0.0 | 0.00 | 0.00 | 0.00 | 70 | 1018.0 |
| 20260903144355 | 56 | 322 | 0.0 | 0.0 | 0.00 | 0.00 | 0.00 | 70 | 1017.9 |
| 20260903144052 | 56 | 322 | 0.0 | 0.0 | 0.00 | 0.00 | 0.00 | 69 | 1017.9 |
| 20260903143309 | 57 | 322 | 0.0 | 0.0 | 0.00 | 0.00 | 0.00 | 69 | 1017.9 |
| 20260903142756 | 57 | 322 | 0.0 | 0.0 | 0.00 | 0.00 | 0.00 | 68 | 1017.8 |
| 20260903142219 | 57 | 322 | 0.0 | 0.0 | 0.00 | 0.00 | 0.00 | 68 | 1017.9 |
| 20260903141707 | 57 | 322 | 0.0 | 0.0 | 0.00 | 0.00 | 0.00 | 68 | 1017.9 |
| 20260903141205 | 57 | 322 | 0.0 | 0.0 | 0.00 | 0.00 | 0.00 | 68 | 1018.0 |
| 20260903140703 | 58 | 322 | 0.0 | 0.0 | 0.00 | 0.00 | 0.00 | 67 | 1018.0 |
| 20260903140156 | 58 | 322 | 0.0 | 0.0 | 0.00 | 0.00 | 0.00 | 67 | 1018.0 |
| 20260903135641 | 58 | 322 | 0.0 | 0.0 | 0.00 | 0.00 | 0.00 | 66 | 1017.9 |
| 20260903135107 | 58 | 322 | 0.0 | 0.0 | 0.00 | 0.00 | 0.00 | 67 | 1017.7 |
| 20260903134609 | 58 | 322 | 0.0 | 0.0 | 0.00 | 0.00 | 0.00 | 66 | 1017.7 |
| 20260903134031 | 59 | 322 | 0.0 | 0.0 | 0.00 | 0.00 | 0.00 | 65 | 1017.7 |
| 20260903133505 | 59 | 322 | 0.0 | 0.0 | 0.00 | 0.00 | 0.00 | 65 | 1017.6 |
| 20260903133005 | 59 | 322 | 0.0 | 0.0 | 0.00 | 0.00 | 0.00 | 65 | 1017.7 |
| 20260903132723 | 59 | 322 | 0.0 | 0.0 | 0.00 | 0.00 | 0.00 | 65 | 1017.6 |
| 20260903131947 | 59 | 322 | 0.0 | 0.0 | 0.00 | 0.00 | 0.00 | 65 | 1017.5 |
| 20260903131858 | 59 | 322 | 0.0 | 1.0 | 0.00 | 0.00 | 0.00 | 64 | 1017.5 |
| 20260903130905 | 59 | 322 | 0.0 | 1.0 | 0.00 | 0.00 | 0.00 | 65 | 1017.4 |
| 20260903130630 | 59 | 322 | 0.0 | 0.0 | 0.00 | 0.00 | 0.00 | 64 | 1017.1 |
| 20260903125844 | 60 | 322 | 0.0 | 0.0 | 0.00 | 0.00 | 0.00 | 64 | 1017.1 |
| 20260903125339 | 60 | 322 | 0.0 | 0.0 | 0.00 | 0.00 | 0.00 | 63 | 1016.9 |
| 20260903124832 | 60 | 322 | 0.0 | 0.0 | 0.00 | 0.00 | 0.00 | 62 | 1017.0 |
| 20260903124323 | 60 | 322 | 0.0 | 0.0 | 0.00 | 0.00 | 0.00 | 62 | 1017.0 |
| 20260903123816 | 60 | 322 | 0.0 | 0.0 | 0.00 | 0.00 | 0.00 | 62 | 1017.0 |
| 20260903123309 | 61 | 322 | 0.0 | 0.0 | 0.00 | 0.00 | 0.00 | 61 | 1017.1 |
| 20260903122803 | 61 | 322 | 0.0 | 0.0 | 0.00 | 0.00 | 0.00 | 61 | 1017.0 |
| 20260903122251 | 61 | 322 | 0.0 | 0.0 | 0.00 | 0.00 | 0.00 | 60 | 1016.9 |
| 20260903121707 | 61 | 322 | 0.0 | 0.0 | 0.00 | 0.00 | 0.00 | 60 | 1016.9 |
| 20260903121159 | 61 | 323 | 0.0 | 0.0 | 0.00 | 0.00 | 0.00 | 60 | 1016.7 |
| 20260903120922 | 61 | 323 | 0.0 | 0.0 | 0.00 | 0.00 | 0.00 | 60 | 1016.6 |
| 20260903120146 | 62 | 322 | 0.0 | 0.0 | 0.00 | 0.00 | 0.00 | 58 | 1016.5 |
| 20260903115625 | 62 | 322 | 0.0 | 0.0 | 0.00 | 0.00 | 0.00 | 58 | 1016.5 |
| 20260903115113 | 62 | 322 | 0.0 | 0.0 | 0.00 | 0.00 | 0.00 | 58 | 1016.5 |
| 20260903114827 | 62 | 322 | 0.0 | 0.0 | 0.00 | 0.00 | 0.00 | 59 | 1016.5 |
| 20260903114059 | 62 | 322 | 0.0 | 0.0 | 0.00 | 0.00 | 0.00 | 62 | 1016.4 |
| 20260903113553 | 62 | 323 | 0.0 | 0.0 | 0.00 | 0.00 | 0.00 | 64 | 1016.3 |
| 20260903113045 | 62 | 323 | 0.0 | 0.0 | 0.00 | 0.00 | 0.00 | 64 | 1016.2 |
| 20260903112547 | 62 | 322 | 0.0 | 0.0 | 0.00 | 0.00 | 0.00 | 63 | 1016.0 |
| 20260903112034 | 63 | 322 | 0.0 | 0.0 | 0.00 | 0.00 | 0.00 | 63 | 1015.9 |
| 20260903111533 | 63 | 322 | 0.0 | 0.0 | 0.00 | 0.00 | 0.00 | 63 | 1015.9 |
| 20260903110957 | 62 | 322 | 0.0 | 0.0 | 0.00 | 0.00 | 0.00 | 63 | 1015.9 |
| 20260903110445 | 63 | 322 | 0.0 | 0.0 | 0.00 | 0.00 | 0.00 | 62 | 1015.9 |
| 20260903105928 | 63 | 322 | 0.0 | 0.0 | 0.00 | 0.00 | 0.00 | 62 | 1015.9 |
| 20260903105409 | 63 | 322 | 0.0 | 0.0 | 0.00 | 0.00 | 0.00 | 61 | 1015.6 |
| 20260903104902 | 64 | 322 | 0.0 | 0.0 | 0.00 | 0.00 | 0.00 | 60 | 1015.5 |
| 20260903104359 | 64 | 322 | 0.0 | 0.0 | 0.00 | 0.00 | 0.00 | 60 | 1015.4 |
| 20260903103842 | 64 | 322 | 0.0 | 0.0 | 0.00 | 0.00 | 0.00 | 59 | 1015.3 |
| 20260903103340 | 64 | 322 | 0.0 | 0.0 | 0.00 | 0.00 | 0.00 | 59 | 1015.3 |
| 20260903102824 | 65 | 322 | 0.0 | 0.0 | 0.00 | 0.00 | 0.00 | 59 | 1015.2 |
| 20260903102320 | 65 | 322 | 0.0 | 0.0 | 0.00 | 0.00 | 0.00 | 59 | 1015.1 |
| 20260903101821 | 65 | 322 | 0.0 | 0.0 | 0.00 | 0.00 | 0.00 | 59 | 1015.0 |
| 20260903101310 | 65 | 323 | 0.0 | 0.0 | 0.00 | 0.00 | 0.00 | 59 | 1014.8 |
| 20260903100808 | 65 | 323 | 0.0 | 0.0 | 0.00 | 0.00 | 0.00 | 58 | 1014.7 |
| 20260903100525 | 65 | 323 | 0.0 | 0.0 | 0.00 | 0.00 | 0.00 | 58 | 1014.4 |
| 20260903095803 | 65 | 323 | 0.0 | 0.0 | 0.00 | 0.00 | 0.00 | 58 | 1014.3 |
| 20260903095306 | 65 | 323 | 0.0 | 1.0 | 0.00 | 0.00 | 0.00 | 57 | 1014.2 |
| 20260903094759 | 66 | 323 | 0.0 | 1.0 | 0.00 | 0.00 | 0.00 | 57 | 1014.2 |
| 20260903094521 | 66 | 323 | 0.0 | 0.0 | 0.00 | 0.00 | 0.00 | 56 | 1014.1 |
| 20260903093748 | 66 | 323 | 0.0 | 0.0 | 0.00 | 0.00 | 0.00 | 56 | 1014.0 |
| 20260903093233 | 67 | 323 | 0.0 | 1.0 | 0.00 | 0.00 | 0.00 | 55 | 1013.9 |
| 20260903092935 | 67 | 323 | 0.0 | 1.0 | 0.00 | 0.00 | 0.00 | 54 | 1013.8 |
| 20260903092203 | 67 | 323 | 0.0 | 5.0 | 0.00 | 0.00 | 0.00 | 54 | 1013.7 |
| 20260903091915 | 67 | 323 | 0.0 | 5.0 | 0.00 | 0.00 | 0.00 | 53 | 1013.5 |
| 20260903091129 | 68 | 319 | 0.0 | 0.0 | 0.00 | 0.00 | 0.00 | 53 | 1013.3 |
| 20260903090625 | 68 | 319 | 0.0 | 2.0 | 0.00 | 0.00 | 0.00 | 52 | 1013.2 |
| 20260903090124 | 68 | 319 | 0.0 | 3.0 | 0.00 | 0.00 | 0.00 | 52 | 1013.1 |
| 20260903085837 | 68 | 319 | 0.0 | 3.0 | 0.00 | 0.00 | 0.00 | 52 | 1013.1 |
| 20260903085344 | 68 | 321 | 0.0 | 1.0 | 0.00 | 0.00 | 0.00 | 51 | 1013.1 |
| 20260903084537 | 68 | 321 | 0.0 | 0.0 | 0.00 | 0.00 | 0.00 | 51 | 1013.1 |
| 20260903084006 | 69 | 321 | 0.0 | 0.0 | 0.00 | 0.00 | 0.00 | 50 | 1013.0 |
| 20260903083940 | 69 | 321 | 0.0 | 0.0 | 0.00 | 0.00 | 0.00 | 50 | 1012.9 |
| 20260903082956 | 69 | 321 | 0.0 | 0.0 | 0.00 | 0.00 | 0.00 | 49 | 1012.7 |
| 20260903082457 | 70 | 321 | 0.0 | 1.0 | 0.00 | 0.00 | 0.00 | 48 | 1012.6 |
| 20260903081928 | 70 | 321 | 0.0 | 1.0 | 0.00 | 0.00 | 0.00 | 47 | 1012.6 |
| 20260903081416 | 70 | 321 | 0.0 | 2.0 | 0.00 | 0.00 | 0.00 | 47 | 1012.4 |
| 20260903080907 | 71 | 321 | 0.0 | 2.0 | 0.00 | 0.00 | 0.00 | 47 | 1012.3 |
| 20260903080401 | 71 | 328 | 0.0 | 2.0 | 0.00 | 0.00 | 0.00 | 46 | 1012.2 |
| 20260903075854 | 71 | 321 | 0.0 | 0.0 | 0.00 | 0.00 | 0.00 | 45 | 1012.1 |
| 20260903075345 | 71 | 321 | 0.0 | 0.0 | 0.00 | 0.00 | 0.00 | 42 | 1012.1 |
| 20260903074835 | 72 | 321 | 0.0 | 0.0 | 0.00 | 0.00 | 0.00 | 39 | 1012.0 |
| 20260903074328 | 72 | 321 | 0.0 | 0.0 | 0.00 | 0.00 | 0.00 | 39 | 1011.9 |
| 20260903073818 | 72 | 322 | 0.0 | 0.0 | 0.00 | 0.00 | 0.00 | 39 | 1011.8 |
| 20260903073308 | 73 | 322 | 0.0 | 0.0 | 0.00 | 0.00 | 0.00 | 39 | 1011.6 |
| 20260903072803 | 73 | 322 | 0.0 | 1.0 | 0.00 | 0.00 | 0.00 | 39 | 1011.5 |
| 20260903072300 | 73 | 322 | 0.0 | 2.0 | 0.00 | 0.00 | 0.00 | 38 | 1011.4 |
| 20260903071757 | 74 | 322 | 0.0 | 2.0 | 0.00 | 0.00 | 0.00 | 37 | 1011.3 |
| 20260903071723 | 74 | 322 | 0.0 | 1.0 | 0.00 | 0.00 | 0.00 | 36 | 1011.1 |
| 20260903070735 | 74 | 322 | 0.0 | 4.0 | 0.00 | 0.00 | 0.00 | 36 | 1011.1 |
| 20260903070224 | 75 | 322 | 0.0 | 4.0 | 0.00 | 0.00 | 0.00 | 35 | 1010.9 |
| 20260903065711 | 75 | 323 | 0.0 | 2.0 | 0.00 | 0.00 | 0.00 | 36 | 1010.8 |
| 20260903065208 | 75 | 323 | 0.0 | 2.0 | 0.00 | 0.00 | 0.00 | 35 | 1010.8 |
| 20260903064659 | 75 | 327 | 0.0 | 4.0 | 0.00 | 0.00 | 0.00 | 34 | 1010.7 |
| 20260903064148 | 75 | 292 | 0.0 | 1.0 | 0.00 | 0.00 | 0.00 | 35 | 1010.6 |
| 20260903063638 | 76 | 294 | 0.0 | 2.0 | 0.00 | 0.00 | 0.00 | 34 | 1010.5 |
| 20260903063348 | 76 | 294 | 0.0 | 4.0 | 0.00 | 0.00 | 0.00 | 34 | 1010.4 |
| 20260903062618 | 76 | 284 | 0.0 | 5.0 | 0.00 | 0.00 | 0.00 | 33 | 1010.2 |
| 20260903062108 | 76 | 338 | 0.0 | 5.0 | 0.00 | 0.00 | 0.00 | 33 | 1010.1 |
| 20260903061816 | 76 | 355 | 0.0 | 4.0 | 0.00 | 0.00 | 0.00 | 33 | 1010.0 |
| 20260903061052 | 77 | 5 | 0.0 | 4.0 | 0.00 | 0.00 | 0.00 | 33 | 1010.1 |
| 20260903060547 | 77 | 320 | 0.0 | 4.0 | 0.00 | 0.00 | 0.00 | 33 | 1010.0 |
| 20260903060046 | 77 | 320 | 0.0 | 5.0 | 0.00 | 0.00 | 0.00 | 32 | 1010.2 |
| 20260903055530 | 78 | 313 | 1.0 | 6.0 | 0.00 | 0.00 | 0.00 | 31 | 1010.1 |
| 20260903055020 | 78 | 298 | 1.0 | 6.0 | 0.00 | 0.00 | 0.00 | 31 | 1010.1 |
| 20260903054957 | 78 | 319 | 1.0 | 6.0 | 0.00 | 0.00 | 0.00 | 32 | 1010.0 |
| 20260903054003 | 78 | 321 | 1.0 | 7.0 | 0.00 | 0.00 | 0.00 | 32 | 1009.9 |
| 20260903053458 | 78 | 304 | 1.0 | 7.0 | 0.00 | 0.00 | 0.00 | 32 | 1009.9 |
| 20260903052949 | 78 | 322 | 1.0 | 7.0 | 0.00 | 0.00 | 0.00 | 31 | 1009.9 |
| 20260903052438 | 78 | 319 | 1.0 | 7.0 | 0.00 | 0.00 | 0.00 | 32 | 1009.9 |
| 20260903051931 | 78 | 331 | 1.0 | 5.0 | 0.00 | 0.00 | 0.00 | 33 | 1009.7 |
| 20260903051426 | 78 | 239 | 1.0 | 5.0 | 0.00 | 0.00 | 0.00 | 33 | 1009.9 |
| 20260903050917 | 79 | 336 | 1.0 | 5.0 | 0.00 | 0.00 | 0.00 | 33 | 1009.7 |
| 20260903050406 | 79 | 170 | 1.0 | 5.0 | 0.00 | 0.00 | 0.00 | 34 | 1009.6 |
| 20260903045857 | 79 | 317 | 1.0 | 6.0 | 0.00 | 0.00 | 0.00 | 34 | 1009.6 |
| 20260903045346 | 79 | 316 | 1.0 | 6.0 | 0.00 | 0.00 | 0.00 | 35 | 1009.6 |
| 20260903044836 | 79 | 28 | 1.0 | 6.0 | 0.00 | 0.00 | 0.00 | 35 | 1009.5 |
| 20260903044547 | 79 | 311 | 1.0 | 6.0 | 0.00 | 0.00 | 0.00 | 36 | 1009.5 |
| 20260903043816 | 80 | 340 | 1.0 | 8.0 | 0.00 | 0.00 | 0.00 | 35 | 1009.3 |
| 20260903043310 | 80 | 344 | 1.0 | 8.0 | 0.00 | 0.00 | 0.00 | 36 | 1009.2 |
| 20260903042806 | 80 | 333 | 1.0 | 4.0 | 0.00 | 0.00 | 0.00 | 35 | 1009.3 |
| 20260903042306 | 80 | 52 | 1.0 | 4.0 | 0.00 | 0.00 | 0.00 | 36 | 1009.3 |
| 20260903041804 | 80 | 52 | 1.0 | 4.0 | 0.00 | 0.00 | 0.00 | 36 | 1009.2 |
| 20260903041304 | 80 | 290 | 0.0 | 4.0 | 0.00 | 0.00 | 0.00 | 35 | 1009.1 |
| 20260903040805 | 80 | 312 | 1.0 | 7.0 | 0.00 | 0.00 | 0.00 | 34 | 1009.1 |
| 20260903040510 | 80 | 311 | 0.0 | 7.0 | 0.00 | 0.00 | 0.00 | 35 | 1009.1 |
| 20260903035740 | 81 | 322 | 0.0 | 2.0 | 0.00 | 0.00 | 0.00 | 34 | 1009.0 |
| 20260903035239 | 81 | 322 | 0.0 | 4.0 | 0.00 | 0.00 | 0.00 | 34 | 1009.1 |
| 20260903034736 | 81 | 325 | 0.0 | 4.0 | 0.00 | 0.00 | 0.00 | 34 | 1009.1 |
| 20260903034236 | 81 | 319 | 0.0 | 2.0 | 0.00 | 0.00 | 0.00 | 34 | 1009.0 |
| 20260903033726 | 82 | 212 | 0.0 | 4.0 | 0.00 | 0.00 | 0.00 | 36 | 1009.0 |
| 20260903033228 | 81 | 212 | 1.0 | 4.0 | 0.00 | 0.00 | 0.00 | 36 | 1008.8 |
| 20260903032724 | 81 | 277 | 0.0 | 3.0 | 0.00 | 0.00 | 0.00 | 33 | 1008.8 |
| 20260903032220 | 81 | 282 | 1.0 | 6.0 | 0.00 | 0.00 | 0.00 | 34 | 1008.7 |
| 20260903031720 | 81 | 312 | 1.0 | 6.0 | 0.00 | 0.00 | 0.00 | 36 | 1008.6 |
| 20260903031212 | 81 | 230 | 1.0 | 5.0 | 0.00 | 0.00 | 0.00 | 36 | 1008.7 |
| 20260903030708 | 82 | 234 | 1.0 | 6.0 | 0.00 | 0.00 | 0.00 | 35 | 1008.7 |
| 20260903030441 | 81 | 231 | 1.0 | 6.0 | 0.00 | 0.00 | 0.00 | 37 | 1008.7 |
| 20260903025710 | 81 | 221 | 1.0 | 8.0 | 0.00 | 0.00 | 0.00 | 37 | 1008.7 |
| 20260903025205 | 81 | 167 | 1.0 | 8.0 | 0.00 | 0.00 | 0.00 | 39 | 1008.7 |
| 20260903024925 | 81 | 126 | 1.0 | 5.0 | 0.00 | 0.00 | 0.00 | 37 | 1008.7 |
| 20260903024152 | 80 | 109 | 1.0 | 7.0 | 0.00 | 0.00 | 0.00 | 40 | 1008.8 |
| 20260903023902 | 82 | 222 | 0.0 | 7.0 | 0.00 | 0.00 | 0.00 | 36 | 1008.8 |
| 20260903023129 | 82 | 92 | 0.0 | 4.0 | 0.00 | 0.00 | 0.00 | 37 | 1008.8 |
| 20260903022620 | 81 | 144 | 0.0 | 5.0 | 0.00 | 0.00 | 0.00 | 38 | 1008.8 |
| 20260903022109 | 81 | 132 | 1.0 | 6.0 | 0.00 | 0.00 | 0.00 | 36 | 1008.8 |
| 20260903021610 | 82 | 216 | 1.0 | 6.0 | 0.00 | 0.00 | 0.00 | 37 | 1008.7 |
| 20260903021057 | 81 | 218 | 1.0 | 6.0 | 0.00 | 0.00 | 0.00 | 38 | 1008.6 |
| 20260903020554 | 81 | 238 | 1.0 | 6.0 | 0.00 | 0.00 | 0.00 | 38 | 1008.6 |
| 20260903020046 | 80 | 336 | 1.0 | 5.0 | 0.00 | 0.00 | 0.00 | 38 | 1008.6 |
| 20260903015538 | 79 | 75 | 1.0 | 9.0 | 0.00 | 0.00 | 0.00 | 39 | 1008.6 |
| 20260903015025 | 78 | 171 | 0.0 | 9.0 | 0.00 | 0.00 | 0.00 | 39 | 1008.7 |
| 20260903014519 | 79 | 240 | 1.0 | 6.0 | 0.00 | 0.00 | 0.00 | 38 | 1008.7 |
| 20260903014009 | 80 | 242 | 1.0 | 6.0 | 0.00 | 0.00 | 0.00 | 37 | 1008.8 |
| 20260903013734 | 81 | 242 | 1.0 | 5.0 | 0.00 | 0.00 | 0.00 | 36 | 1008.8 |
| 20260903013001 | 82 | 208 | 0.0 | 4.0 | 0.00 | 0.00 | 0.00 | 36 | 1008.6 |
| 20260903012456 | 82 | 229 | 0.0 | 5.0 | 0.00 | 0.00 | 0.00 | 36 | 1008.6 |
| 20260903011937 | 82 | 263 | 0.0 | 5.0 | 0.00 | 0.00 | 0.00 | 37 | 1008.5 |
| 20260903011427 | 82 | 238 | 0.0 | 4.0 | 0.00 | 0.00 | 0.00 | 36 | 1008.4 |
| 20260903010917 | 82 | 235 | 1.0 | 6.0 | 0.00 | 0.00 | 0.00 | 37 | 1008.4 |
| 20260903010407 | 82 | 219 | 0.0 | 6.0 | 0.00 | 0.00 | 0.00 | 36 | 1008.4 |
| 20260903005857 | 83 | 196 | 1.0 | 5.0 | 0.00 | 0.00 | 0.00 | 39 | 1008.4 |
| 20260903005347 | 82 | 189 | 1.0 | 8.0 | 0.00 | 0.00 | 0.00 | 35 | 1008.4 |
| 20260903004836 | 81 | 197 | 1.0 | 8.0 | 0.00 | 0.00 | 0.00 | 35 | 1008.6 |
| 20260903004331 | 82 | 234 | 1.0 | 5.0 | 0.00 | 0.00 | 0.00 | 35 | 1008.5 |
| 20260903003821 | 82 | 208 | 1.0 | 5.0 | 0.00 | 0.00 | 0.00 | 37 | 1008.6 |
| 20260903003310 | 81 | 315 | 0.0 | 3.0 | 0.00 | 0.00 | 0.00 | 39 | 1008.4 |
| 20260903003026 | 81 | 333 | 0.0 | 3.0 | 0.00 | 0.00 | 0.00 | 39 | 1008.4 |
| 20260903002524 | 81 | 214 | 1.0 | 6.0 | 0.00 | 0.00 | 0.00 | 40 | 1008.4 |
| 20260903001749 | 80 | 293 | 2.0 | 6.0 | 0.00 | 0.00 | 0.00 | 40 | 1008.3 |
| 20260903001239 | 80 | 286 | 1.0 | 9.0 | 0.00 | 0.00 | 0.00 | 40 | 1008.2 |
| 20260903000729 | 80 | 313 | 1.0 | 9.0 | 0.00 | 0.00 | 0.00 | 41 | 1008.2 |
| 20260903000219 | 79 | 199 | 1.0 | 8.0 | 0.00 | 0.00 | 0.00 | 41 | 1008.2 |
| 20260902235932 | 80 | 294 | 1.0 | 8.0 | 0.00 | 0.00 | 0.00 | 42 | 1008.4 |
| 20260902235207 | 80 | 315 | 1.0 | 8.0 | 0.00 | 0.00 | 0.00 | 42 | 1008.4 |
| 20260902234658 | 79 | 296 | 1.0 | 8.0 | 0.00 | 0.00 | 0.00 | 42 | 1008.2 |
| 20260902234147 | 79 | 293 | 1.0 | 8.0 | 0.00 | 0.00 | 0.00 | 42 | 1008.2 |
| 20260902233637 | 79 | 286 | 1.0 | 6.0 | 0.00 | 0.00 | 0.00 | 43 | 1008.3 |
| 20260902233130 | 79 | 118 | 0.0 | 5.0 | 0.00 | 0.00 | 0.00 | 43 | 1008.2 |
| 20260902232842 | 78 | 302 | 0.0 | 4.0 | 0.00 | 0.00 | 0.00 | 47 | 1008.2 |
| 20260902232112 | 78 | 301 | 1.0 | 6.0 | 0.00 | 0.00 | 0.00 | 46 | 1007.9 |
| 20260902231605 | 78 | 307 | 1.0 | 6.0 | 0.00 | 0.00 | 0.00 | 46 | 1007.9 |
| 20260902231059 | 78 | 307 | 0.0 | 4.0 | 0.00 | 0.00 | 0.00 | 46 | 1007.8 |
| 20260902230549 | 77 | 316 | 0.0 | 2.0 | 0.00 | 0.00 | 0.00 | 47 | 1007.8 |
| 20260902230043 | 77 | 316 | 1.0 | 4.0 | 0.00 | 0.00 | 0.00 | 47 | 1007.8 |
| 20260902225532 | 76 | 313 | 1.0 | 4.0 | 0.00 | 0.00 | 0.00 | 47 | 1007.8 |
| 20260902225023 | 76 | 294 | 1.0 | 6.0 | 0.00 | 0.00 | 0.00 | 46 | 1007.6 |
| 20260902224516 | 76 | 316 | 1.0 | 6.0 | 0.00 | 0.00 | 0.00 | 47 | 1007.6 |
| 20260902224010 | 76 | 29 | 1.0 | 5.0 | 0.00 | 0.00 | 0.00 | 47 | 1007.5 |
| 20260902223502 | 75 | 279 | 1.0 | 5.0 | 0.00 | 0.00 | 0.00 | 48 | 1007.5 |
| 20260902223215 | 75 | 296 | 1.0 | 5.0 | 0.00 | 0.00 | 0.00 | 47 | 1007.5 |
| 20260902222444 | 75 | 323 | 1.0 | 5.0 | 0.00 | 0.00 | 0.00 | 48 | 1007.6 |
| 20260902221938 | 74 | 324 | 1.0 | 5.0 | 0.00 | 0.00 | 0.00 | 49 | 1007.7 |
| 20260902221914 | 74 | 294 | 1.0 | 3.0 | 0.00 | 0.00 | 0.00 | 50 | 1007.7 |
| 20260902220923 | 74 | 296 | 1.0 | 5.0 | 0.00 | 0.00 | 0.00 | 50 | 1007.6 |
| 20260902220411 | 73 | 308 | 0.0 | 5.0 | 0.00 | 0.00 | 0.00 | 51 | 1007.7 |
| 20260902220128 | 73 | 294 | 0.0 | 3.0 | 0.00 | 0.00 | 0.00 | 50 | 1007.6 |
| 20260902215359 | 72 | 292 | 0.0 | 5.0 | 0.00 | 0.00 | 0.00 | 52 | 1007.5 |
| 20260902214850 | 72 | 296 | 0.0 | 4.0 | 0.00 | 0.00 | 0.00 | 53 | 1007.5 |
| 20260902214341 | 72 | 321 | 0.0 | 2.0 | 0.00 | 0.00 | 0.00 | 52 | 1007.6 |
| 20260902214317 | 72 | 321 | 0.0 | 1.0 | 0.00 | 0.00 | 0.00 | 52 | 1007.6 |
| 20260902213324 | 71 | 324 | 0.0 | 3.0 | 0.00 | 0.00 | 0.00 | 51 | 1007.6 |
| 20260902213028 | 71 | 330 | 0.0 | 3.0 | 0.00 | 0.00 | 0.00 | 53 | 1007.4 |
| 20260902212257 | 71 | 331 | 0.0 | 3.0 | 0.00 | 0.00 | 0.00 | 53 | 1007.3 |
| 20260902211756 | 71 | 331 | 0.0 | 4.0 | 0.00 | 0.00 | 0.00 | 53 | 1007.4 |
| 20260902211251 | 70 | 331 | 0.0 | 4.0 | 0.00 | 0.00 | 0.00 | 54 | 1007.4 |
| 20260902210749 | 69 | 300 | 0.0 | 0.0 | 0.00 | 0.00 | 0.00 | 56 | 1007.2 |
| 20260902210241 | 68 | 300 | 0.0 | 0.0 | 0.00 | 0.00 | 0.00 | 56 | 1007.2 |
| 20260902205732 | 67 | 300 | 0.0 | 0.0 | 0.00 | 0.00 | 0.00 | 58 | 1007.2 |
| 20260902205227 | 67 | 300 | 0.0 | 1.0 | 0.00 | 0.00 | 0.00 | 61 | 1007.0 |
| 20260902204719 | 66 | 300 | 0.0 | 1.0 | 0.00 | 0.00 | 0.00 | 62 | 1006.9 |
| 20260902204212 | 65 | 293 | 0.0 | 0.0 | 0.00 | 0.00 | 0.00 | 62 | 1006.8 |
| 20260902203706 | 65 | 293 | 0.0 | 0.0 | 0.00 | 0.00 | 0.00 | 62 | 1006.9 |
| 20260902203208 | 65 | 293 | 0.0 | 2.0 | 0.00 | 0.00 | 0.00 | 62 | 1007.0 |
| 20260902202622 | 65 | 294 | 0.0 | 2.0 | 0.00 | 0.00 | 0.00 | 62 | 1006.9 |
| 20260902202612 | 65 | 294 | 0.0 | 2.0 | 0.00 | 0.00 | 0.00 | 62 | 1007.0 |
| 20260902201623 | 65 | 325 | 0.0 | 0.0 | 0.00 | 0.00 | 0.00 | 63 | 1007.1 |
| 20260902201334 | 65 | 325 | 0.0 | 0.0 | 0.00 | 0.00 | 0.00 | 62 | 1007.2 |
| 20260902200559 | 65 | 325 | 0.0 | 0.0 | 0.00 | 0.00 | 0.00 | 63 | 1007.1 |
| 20260902200044 | 66 | 325 | 0.0 | 0.0 | 0.00 | 0.00 | 0.00 | 62 | 1006.9 |
| 20260902195539 | 66 | 325 | 0.0 | 0.0 | 0.00 | 0.00 | 0.00 | 62 | 1007.3 |
| 20260902195038 | 66 | 324 | 0.0 | 5.0 | 0.00 | 0.00 | 0.00 | 63 | 1007.3 |
| 20260902194736 | 66 | 324 | 0.0 | 5.0 | 0.00 | 0.00 | 0.00 | 62 | 1007.4 |
| 20260902194231 | 66 | 324 | 0.0 | 0.0 | 0.00 | 0.00 | 0.00 | 62 | 1007.5 |
| 20260902193511 | 66 | 324 | 0.0 | 0.0 | 0.00 | 0.00 | 0.00 | 62 | 1007.6 |
| 20260902193010 | 66 | 324 | 0.0 | 0.0 | 0.00 | 0.00 | 0.00 | 62 | 1007.5 |
| 20260902192502 | 66 | 324 | 0.0 | 0.0 | 0.00 | 0.00 | 0.00 | 62 | 1007.5 |
| 20260902191958 | 66 | 324 | 0.0 | 0.0 | 0.00 | 0.00 | 0.00 | 62 | 1007.8 |
| 20260902191448 | 67 | 324 | 0.0 | 0.0 | 0.00 | 0.00 | 0.00 | 62 | 1007.9 |
| 20260902190922 | 67 | 324 | 0.0 | 0.0 | 0.00 | 0.00 | 0.00 | 62 | 1008.1 |
| 20260902190408 | 67 | 324 | 0.0 | 0.0 | 0.00 | 0.00 | 0.00 | 62 | 1008.3 |
| 20260902190121 | 67 | 324 | 0.0 | 0.0 | 0.00 | 0.00 | 0.00 | 63 | 1008.3 |
| 20260902185402 | 67 | 324 | 0.0 | 0.0 | 0.00 | 0.00 | 0.00 | 64 | 1008.5 |
| 20260902184902 | 68 | 324 | 0.0 | 0.0 | 0.00 | 0.00 | 0.00 | 64 | 1008.8 |
| 20260902184403 | 68 | 324 | 0.0 | 0.0 | 0.00 | 0.00 | 0.00 | 63 | 1008.8 |
| 20260902183902 | 68 | 324 | 0.0 | 0.0 | 0.00 | 0.00 | 0.00 | 63 | 1009.0 |
| 20260902183336 | 68 | 324 | 0.0 | 0.0 | 0.00 | 0.00 | 0.00 | 62 | 1009.0 |
| 20260902182810 | 69 | 324 | 0.0 | 0.0 | 0.00 | 0.00 | 0.00 | 61 | 1009.3 |
| 20260902182311 | 69 | 324 | 0.0 | 0.0 | 0.00 | 0.00 | 0.00 | 59 | 1009.4 |
| 20260902181523 | 69 | 324 | 0.0 | 0.0 | 0.00 | 0.00 | 0.00 | 56 | 1009.2 |
| 20260902180802 | 69 | 324 | 0.0 | 0.0 | 0.00 | 0.00 | 0.00 | 56 | 1008.9 |
| 20260902180302 | 69 | 324 | 0.0 | 0.0 | 0.00 | 0.00 | 0.00 | 56 | 1008.5 |
| 20260902175802 | 69 | 324 | 0.0 | 0.0 | 0.00 | 0.00 | 0.00 | 56 | 1008.2 |
| 20260902175238 | 69 | 324 | 0.0 | 2.0 | 0.00 | 0.00 | 0.00 | 56 | 1008.1 |
| 20260902174738 | 69 | 324 | 0.0 | 2.0 | 0.00 | 0.00 | 0.00 | 56 | 1008.1 |
| 20260902174209 | 69 | 320 | 0.0 | 2.0 | 0.00 | 0.00 | 0.00 | 56 | 1008.1 |
| 20260902173928 | 69 | 320 | 0.0 | 2.0 | 0.00 | 0.00 | 0.00 | 56 | 1008.1 |
| 20260902173424 | 69 | 317 | 0.0 | 1.0 | 0.00 | 0.00 | 0.00 | 56 | 1008.2 |
| 20260902172653 | 69 | 317 | 0.0 | 1.0 | 0.00 | 0.00 | 0.00 | 56 | 1008.1 |
| 20260902172125 | 69 | 315 | 0.0 | 4.0 | 0.00 | 0.00 | 0.00 | 56 | 1008.4 |
| 20260902171613 | 69 | 315 | 0.0 | 4.0 | 0.00 | 0.00 | 0.00 | 56 | 1008.5 |
| 20260902171104 | 69 | 313 | 0.0 | 1.0 | 0.00 | 0.00 | 0.00 | 57 | 1008.6 |
| 20260902170558 | 68 | 312 | 0.0 | 1.0 | 0.00 | 0.00 | 0.00 | 56 | 1008.7 |
| 20260902170038 | 68 | 312 | 0.0 | 1.0 | 0.00 | 0.00 | 0.00 | 57 | 1008.8 |
| 20260902165531 | 68 | 312 | 0.0 | 2.0 | 0.00 | 0.00 | 0.00 | 57 | 1008.9 |
| 20260902165232 | 68 | 312 | 0.0 | 4.0 | 0.00 | 0.00 | 0.00 | 57 | 1008.9 |
| 20260902164506 | 68 | 312 | 0.0 | 4.0 | 0.00 | 0.00 | 0.00 | 57 | 1009.1 |
| 20260902164008 | 68 | 315 | 0.0 | 1.0 | 0.00 | 0.00 | 0.00 | 57 | 1009.2 |
| 20260902163502 | 68 | 315 | 0.0 | 0.0 | 0.00 | 0.00 | 0.00 | 57 | 1009.2 |
| 20260902163219 | 69 | 315 | 0.0 | 0.0 | 0.00 | 0.00 | 0.00 | 57 | 1009.3 |
| 20260902162452 | 69 | 315 | 0.0 | 0.0 | 0.00 | 0.00 | 0.00 | 57 | 1009.5 |
| 20260902161935 | 69 | 315 | 0.0 | 0.0 | 0.00 | 0.00 | 0.00 | 56 | 1009.5 |
| 20260902161426 | 69 | 315 | 0.0 | 0.0 | 0.00 | 0.00 | 0.00 | 56 | 1009.7 |
| 20260902160916 | 69 | 315 | 0.0 | 0.0 | 0.00 | 0.00 | 0.00 | 56 | 1009.7 |
| 20260902160406 | 69 | 315 | 0.0 | 0.0 | 0.00 | 0.00 | 0.00 | 57 | 1009.8 |
| 20260902160128 | 69 | 315 | 0.0 | 0.0 | 0.00 | 0.00 | 0.00 | 56 | 1009.9 |
| 20260902155346 | 69 | 315 | 0.0 | 0.0 | 0.00 | 0.00 | 0.00 | 56 | 1010.0 |
| 20260902154839 | 69 | 315 | 0.0 | 0.0 | 0.00 | 0.00 | 0.00 | 55 | 1009.9 |
| 20260902154326 | 69 | 315 | 0.0 | 4.0 | 0.00 | 0.00 | 0.00 | 55 | 1010.0 |
| 20260902153820 | 69 | 315 | 0.0 | 4.0 | 0.00 | 0.00 | 0.00 | 55 | 1010.1 |
| 20260902153306 | 69 | 318 | 0.0 | 2.0 | 0.00 | 0.00 | 0.00 | 55 | 1010.1 |
| 20260902152807 | 69 | 314 | 0.0 | 3.0 | 0.00 | 0.00 | 0.00 | 55 | 1010.1 |